Location: ??????
(38.1303°N, 24.0039°E)
Time: 06:23:09
(UTC+00:00)

UNK - Pass Details

Date: 20 June 2021
Orbit: 666 x 686 km, 98.2° (Epoch: 30 July)

Event Time Altitude Azimuth Distance (km) Brightness Sun altitude
Exits shadow 00:54:20 36° 248° (WSW) 1,054 4.3 -19.2°
Maximum altitude 00:54:47 37° 262° (W) 1,037 4.3 -19.2°
Drops below altitude 10° 00:59:05 10° 330° (NNW) 2,116 6.6 -18.7°
Sets 01:01:28 0° 339° (NNW) 3,038 7.5 -18.4°
